Погода в Первомайском

Россия / Саратовская область     51°26′29″N   43°10′08″E
темп.,
°C
ветер,
м/с
пор.,
м/с
влажн.,
%
обл.,
%
осадки,
мм/ч
давл.,
гПа
погр.,
м
20 сентября, пн
пн2001:00+12юв81636100 0.1 1017761
04:00+8юв91880100 2.4 1016588
07:00+7вюв91889100 7.8 1015561
10:00+8вюв91989100 15.2 1015738
13:00+8юв91882100 1.9 1015667
16:00+8вюв81584100 2.6 1015700
19:00+9вюв81482100 0.0 1015622
22:00+9вюв81482100 0.1 1015567
21 сентября, вт
вт2101:00+8вюв6138699 0.1 1014401
04:00+9вюв6128622 0.1 1014341
07:00+8вюв499086 0.1 1014217
10:00+11вюв3578100 0.7 1014263
13:00+15ююв2370100 0.0 1013577
16:00+17ююв246294 0.5 1011875
19:00+14з238098 1.1 101159
22:00+12с0186100 1.7 101115
22 сентября, ср
ср2201:00+12в1182100 0.8 101120
04:00+11вюв229122 0.8 101027
07:00+9юз48925 0.5 1010200
10:00+11юз68745 0.5 1011706
13:00+10зюз5776100 0.1 1013669
16:00+12зюз465632 0.1 10131378
19:00+11ююз2259100 0.0 101448
22:00+11ю2260100 0.0 101534
23 сентября, чт
чт2301:00+11ююв1263100 0.0 101527
04:00+10юв2264100 0.0 101552
07:00+10в2264100 0.0 101539
10:00+11в356565 0.0 1015294
13:00+15юв3465100 0.1 1013844
16:00+15вюв1369100 0.3 1012593
19:00+10зсз4879100 0.3 1013189
22:00+9сз2382100 0.3 101356
24 сентября, пт
пт2401:00+9ссз2280100 0.2 101380
04:00+9ссв2493100 3.4 1012213
07:00+8ссв3694100 2.7 1011261
10:00+8ссв4693100 7.2 1011316
13:00+9ссз3494100 1.1 1009346
16:00+9ссз2391100 1.4 1009265
19:00+9з128972 0.0 100997
22:00+8ю338684 0.0 100861